Location: Unspecified
(0.0000°N, 0.0000°E)
Time: 19:33:39
(UTC+00:00)

deb OV3-4 - Pass Details

Date: 17 April 2026
Orbit: 581 x 4210 km, 40.6° (Epoch: 13 May)

Event Time Altitude Azimuth Distance (km) Brightness Sun altitude
Rises 19:16:18 0° 309° (NW) 6,723 ? -18.8°
Reaches altitude 10° 19:21:36 10° 307° (NW) 5,116 ? -20.1°
Maximum altitude 19:34:15 67° 227° (SW) 1,507 ? -23.2°
Enters shadow 19:38:04 29° 153° (SSE) 1,907 ? -24.2°
